NOAA 16 DEB, 42366

Orbit data source: Space-Track

NOAA 16 DEB, 42366 is space debris in SSO originally from a launch on Thu, 21 Sep 2000 UTC launched from the Air Force Western Test Range (AFWTR). Debris objects in space refer to the collection of defunct objects orbiting the Earth. Examples of debris include non-operational satellites, rocket bodies, and fragments generated from explosions, collisions, or faulty payload assembly.

Loading next visibility...
Identifier
42366, 2000-055RJ
Orbit
SSO
Country
Flag of USUS
Related business
Manufacturer
Unknown
Mission
Spacecraft
Bus & Motor
Unknown
Mass
Unknown
Launch date (UTC)
2000-09-21 (25 years ago)
Launch vehicle
Unknown
Launch site
Air Force Western Test Range (AFWTR)
Object type
Payload
Rocket body
Debris
Shape & HBR
Unknown shape, 0.1 m
Radar Cross Section
Small (<0.1 m²)

Expand to show TLE details & history
Last TLE update: 22 hours ago

TLE from 22 hours ago
0 NOAA 16 DEB
1 42366U 00055RJ  25352.68941932  .00068917  00000-0  48065-2 0  9996
2 42366  98.8638 252.6626 0024007  18.1976 342.0100 15.04854975517831
Epoch: 2025-12-18T16:32Z
TLE epoch observation values (Epoch: 2025-12-18T16:32:45.829Z)
Latitude
-0.00003°
Longitude
-83.06967°
Altitude
539.152 km
Speed
7.602 km/s
True Right ascension
16h 50m 39s
True Declination
0° 00' 00"
Sunlit
Object was in daylight at epoch
Visualization orbit readout
Latitude
Unknown
Longitude
Unknown
Altitude
Unknown
Speed
Unknown
Apparent Right ascension
Unknown
Apparent Declination
Unknown
Sunlit
N/A
Visualization observer readout
Local Sidereal Time
13:03:16
Azimuth
Unknown
Elevation
Unknown
Doppler factor
Unknown
Orbital elements
Apogee altitude
565.635 km
Perigee altitude
532.375 km
Semi-major axis
6,927.142 km
Eccentricity
0.0024
Inclination
98.8638°
RAAN
252.6626°
Arg. of periapsis
18.1976°
True anomaly
341.92479°
Mean anomaly
342.01°
Eccentric anomaly
341.96742°
Mean motion
3.76454 °/min
Orbital period
95.63 mins
BSTAR
0.0048065
Loading maneuver chart data...
Computing Atmospheric mass density...
Loading historical data...
Loading historical data...
Loading historical data...
Loading historical data...
Loading historical data...
Loading historical data...
Loading historical data...

Documentation

Showing up to 5 results
|